GW6869 Weather Reports


Display with metric or nautical units.
time (UTC)temp
F
wind
direction
speed
MPH
gust
MPH
rain 1hr
in
rain 24hr
in
rain mn
in
humidity
%
barometer
mb
20260503171553 80 0 0.0 1.0 0.00 0.00 0.00 52 1012.1
20260503090105 54 0 0.0 1.0 0.00 0.00 0.00 90 1013.1
20260503081558 55 0 0.0 1.0 0.00 0.00 0.00 90 1013.1
20260503071611 56 0 0.0 1.0 0.00 0.00 0.00 89 1013.2
20260503070111 56 0 0.0 0.0 0.00 0.00 0.00 89 1013.2
20260503060114 58 0 0.0 0.0 0.00 0.00 0.00 87 1013.2
20260503054557 58 0 0.0 0.0 0.00 0.01 0.00 87 1013.3
20260503053058 58 0 0.0 2.0 0.00 0.01 0.00 87 1013.3
20260503051553 59 243 1.0 3.0 0.00 0.01 0.00 87 1013.2
20260503050100 59 0 0.0 2.0 0.00 0.01 0.00 86 1012.8
20260503044554 59 0 0.0 0.0 0.00 0.01 0.00 86 1013.0
20260503043054 60 0 0.0 0.0 0.00 0.01 0.00 85 1013.2
20260503041552 60 0 0.0 3.0 0.00 0.01 0.00 85 1013.4
20260503040057 60 0 0.0 2.0 0.00 0.01 0.00 85 1013.6
20260503034553 61 0 0.0 0.0 0.00 0.01 0.00 84 1013.5
20260503033059 61 0 0.0 0.0 0.00 0.01 0.00 83 1013.5
20260503031552 62 0 0.0 0.0 0.00 0.01 0.00 82 1013.4
20260503030057 62 0 0.0 0.0 0.00 0.01 0.00 81 1013.4
20260503024553 63 0 0.0 0.0 0.00 0.01 0.00 81 1013.3
20260503023059 63 0 0.0 1.0 0.00 0.01 0.00 80 1013.4
20260503021554 64 302 0.0 3.0 0.00 0.01 0.00 78 1013.2
20260503020053 65 0 0.0 0.0 0.00 0.01 0.00 77 1012.9
20260503014607 65 0 0.0 0.0 0.00 0.01 0.00 74 1012.5
20260503013053 66 0 0.0 0.0 0.00 0.01 0.00 72 1012.4
20260503011617 67 0 0.0 1.0 0.00 0.01 0.00 73 1012.3
20260503010055 67 0 0.0 2.0 0.00 0.01 0.00 70 1012.3
20260503004552 67 0 0.0 1.0 0.00 0.01 0.00 70 1012.3
20260503003058 68 0 0.0 1.0 0.00 0.01 0.00 69 1012.3
20260503001611 68 0 0.0 0.0 0.00 0.01 0.00 68 1012.2
20260503000116 68 0 0.0 0.0 0.00 0.01 0.00 68 1012.3
20260502234614 67 0 0.0 0.0 0.00 0.01 0.00 69 1012.4
20260502233057 68 0 0.0 0.0 0.00 0.01 0.00 71 1012.3
20260502231553 67 193 0.0 3.0 0.00 0.01 0.00 70 1012.5
20260502230057 67 0 0.0 0.0 0.00 0.01 0.00 71 1012.7
20260502224555 67 0 0.0 2.0 0.00 0.01 0.00 70 1012.8
20260502223101 67 0 0.0 4.0 0.00 0.01 0.00 68 1013.0
20260502221552 66 0 0.0 2.0 0.00 0.01 0.00 71 1013.2
20260502220100 66 0 0.0 3.0 0.00 0.01 0.00 70 1013.4
20260502214556 66 0 0.0 5.0 0.00 0.01 0.00 71 1013.7
20260502213100 65 0 1.0 3.0 0.00 0.01 0.00 71 1013.8
20260502211553 64 169 0.0 1.0 0.00 0.01 0.00 75 1014.0
20260502210056 63 197 0.0 4.0 0.00 0.01 0.00 74 1014.1
20260502204603 62 0 0.0 0.0 0.00 0.01 0.00 76 1014.4
20260502203118 61 0 0.0 3.0 0.00 0.01 0.00 78 1014.5
20260502201616 60 0 0.0 6.0 0.00 0.01 0.00 79 1014.7
20260502200101 60 0 0.0 2.0 0.00 0.01 0.00 77 1014.9
20260502194559 61 336 0.0 3.0 0.00 0.01 0.00 78 1014.8
20260502193109 61 170 1.0 5.0 0.00 0.01 0.00 77 1014.9
20260502191556 60 0 0.0 0.0 0.00 0.01 0.00 81 1014.9
20260502190054 60 321 0.0 4.0 0.00 0.01 0.00 81 1014.8
20260502184602 59 263 0.0 7.0 0.00 0.01 0.00 83 1014.7
20260502183052 56 0 0.0 2.0 0.00 0.01 0.00 86 1014.4
20260502181923 54 0 0.0 5.0 0.00 0.01 0.00 88 1015.2